Precipitable_Water
0.34 0.34 0.36 0.39 0.36 0.37 0.34 0.34 0.34 0.38 0.44 0.53 0.61 0.66 0.75 0.96 1.04 1.08 1.13 1.17 1.14 1.14 1.22 1.35 1.47 1.58 1.77 1.90 2.01 2.16 2.01 1.96 1.88 1.82 1.69 1.49 1.48 1.52 1.62 1.67 1.70 1.83 1.88 1.95
0.23 0.35 0.38 0.37 0.40 0.39 0.42 0.42 0.42 0.44 0.44 0.62 0.68 0.70 0.71 0.80 0.91 0.95 1.02 1.10 1.14 1.18 1.24 1.21 1.33 1.50 1.66 1.78 1.90 2.19 1.98 1.95 1.93 1.83 1.78 1.64 1.58 1.59 1.65 1.73 1.90 1.97 1.86 1.91
0.28 0.36 0.36 0.34 0.41 0.43 0.46 0.49 0.47 0.38 0.47 0.62 0.60 0.63 0.68 0.75 0.85 0.87 1.01 1.09 1.10 1.16 1.22 1.28 1.36 1.47 1.55 1.78 1.94 1.96 2.16 2.02 1.94 1.94 1.73 1.76 1.68 1.67 1.69 1.70 1.88 1.82 1.81 1.75
0.35 0.35 0.25 0.39 0.51 0.48 0.46 0.51 0.55 0.52 0.56 0.60 0.63 0.72 0.78 0.86 0.82 0.90 1.00 1.03 1.05 1.08 1.17 1.24 1.29 1.42 1.65 1.86 1.82 1.90 1.91 1.87 1.78 1.83 1.79 1.77 1.73 1.65 1.63 1.69 1.68 1.73 1.74 1.72
0.30 0.30 0.33 0.37 0.45 0.47 0.47 0.44 0.59 0.56 0.60 0.68 0.78 0.80 0.79 0.96 0.95 0.94 1.06 1.09 1.13 1.17 1.17 1.21 1.28 1.35 1.41 1.59 1.71 1.75 1.84 1.97 1.93 1.94 1.87 1.87 1.75 1.64 1.58 1.60 1.61 1.67 1.74 1.73
0.38 0.32 0.27 0.31 0.46 0.58 0.56 0.36 0.62 0.66 0.66 0.70 0.77 0.54 0.60 0.90 1.01 1.08 1.19 1.21 1.19 1.17 1.19 1.25 1.37 1.43 1.50 1.60 1.69 1.78 1.86 1.91 1.89 1.95 1.97 2.03 1.88 1.78 1.73 1.70 1.67 1.72 1.77 1.82
0.38 0.33 0.34 0.49 0.56 0.63 0.35 0.39 0.70 0.73 0.70 0.71 0.60 0.64 0.81 1.00 1.03 1.11 1.20 1.19 1.20 1.20 1.19 1.23 1.37 1.48 1.48 1.63 1.67 1.89 1.97 1.96 1.99 1.96 2.00 2.12 2.02 2.01 1.94 1.89 1.89 1.88 1.90 1.93
0.45 0.40 0.34 0.68 0.69 0.54 0.67 0.78 0.73 0.71 0.67 0.67 0.76 0.85 0.92 1.05 1.10 1.17 1.17 1.16 1.20 1.18 1.21 1.26 1.39 1.49 1.49 1.50 1.66 1.89 2.01 1.98 1.96 1.96 1.98 1.97 1.95 1.98 1.98 1.97 1.86 1.89 1.88 1.84
0.52 0.51 0.74 0.84 0.73 0.76 0.81 0.80 0.74 0.68 0.75 0.86 0.92 0.95 1.08 1.14 1.19 1.19 1.25 1.22 1.22 1.19 1.23 1.29 1.41 1.56 1.47 1.59 1.71 1.77 1.86 1.84 1.88 1.92 1.92 1.94 1.87 1.84 1.82 1.83 1.77 1.77 1.76 1.75
0.57 0.62 0.67 0.70 0.77 0.81 0.83 0.77 0.84 0.88 1.01 1.03 1.15 1.28 1.21 1.24 1.22 1.26 1.29 1.22 1.21 1.19 1.23 1.30 1.40 1.53 1.53 1.65 1.73 1.68 1.61 1.69 1.69 1.65 1.70 1.75 1.76 1.77 1.67 1.66 1.66 1.65 1.62 1.62
0.64 0.78 0.81 0.81 0.80 0.80 0.81 0.81 0.91 0.99 1.07 1.15 1.13 1.13 1.16 1.16 1.22 1.21 1.18 1.17 1.22 1.21 1.23 1.31 1.44 1.48 1.55 1.63 1.66 1.57 1.46 1.51 1.59 1.58 1.62 1.60 1.62 1.62 1.62 1.62 1.65 1.56 1.51 1.49
0.57 0.77 0.75 0.74 0.86 0.79 0.71 0.78 0.81 0.93 1.09 1.15 1.12 1.16 1.17 1.18 1.19 1.19 1.18 1.20 1.19 1.19 1.24 1.30 1.45 1.55 1.58 1.67 1.66 1.62 1.51 1.48 1.50 1.58 1.63 1.59 1.56 1.54 1.60 1.65 1.65 1.63 1.63 1.52
0.71 0.84 0.83 0.82 0.88 0.79 0.75 0.82 0.95 1.09 1.12 1.10 1.16 1.13 1.13 1.11 1.14 1.15 1.10 1.13 1.11 1.15 1.19 1.23 1.30 1.43 1.58 1.64 1.61 1.55 1.52 1.55 1.55 1.52 1.50 1.45 1.42 1.38 1.31 1.28 1.25 1.21 1.11 1.00
0.93 0.91 0.88 0.84 0.68 0.81 0.91 0.96 0.97 0.95 1.05 1.01 0.91 0.99 0.99 0.97 0.97 0.98 0.97 1.03 1.03 1.00 0.97 1.02 1.07 1.06 1.12 1.17 1.22 1.21 1.19 1.17 1.12 1.07 1.01 0.96 0.89 0.85 0.79 0.67 0.64 0.66 0.71 0.70
0.94 0.92 0.84 0.80 0.83 0.89 0.93 0.89 0.76 0.76 0.85 0.83 0.87 0.86 0.82 0.76 0.78 0.81 0.88 0.94 0.97 0.96 0.97 1.00 1.05 1.05 1.05 1.03 0.99 0.96 0.94 0.87 0.83 0.81 0.80 0.79 0.76 0.72 0.68 0.63 0.58 0.55 0.56 0.55
0.94 0.96 0.93 0.79 0.83 0.83 0.79 0.77 0.72 0.76 0.79 0.72 0.70 0.70 0.71 0.72 0.71 0.75 0.84 0.90 0.89 0.88 0.95 0.96 0.95 1.03 1.00 0.93 0.91 0.90 0.89 0.88 0.88 0.85 0.81 0.76 0.69 0.65 0.60 0.58 0.57 0.56 0.55 0.53
0.78 0.76 0.87 0.79 0.82 0.87 0.87 0.82 0.77 0.86 0.80 0.76 0.78 0.70 0.71 0.79 0.81 0.81 0.86 0.96 0.99 0.97 0.97 0.94 0.91 0.94 0.95 0.94 0.83 0.83 0.87 0.80 0.73 0.76 0.73 0.71 0.65 0.62 0.61 0.61 0.59 0.60 0.59 0.60
0.87 0.79 0.81 0.81 0.83 0.85 0.94 0.88 0.85 0.82 0.80 0.86 0.87 0.82 0.81 0.81 0.83 0.90 1.00 1.11 1.14 1.14 1.04 0.95 0.92 0.87 0.78 0.81 0.70 0.60 0.54 0.56 0.53 0.53 0.58 0.56 0.57 0.55 0.54 0.56 0.57 0.59 0.60 0.63
0.81 0.79 0.81 0.77 0.79 0.81 0.86 0.86 0.84 0.81 0.86 0.91 0.86 0.79 0.84 0.91 0.96 0.96 1.00 0.95 0.92 0.89 0.82 0.78 0.71 0.65 0.64 0.55 0.51 0.46 0.44 0.41 0.44 0.43 0.46 0.49 0.53 0.52 0.51 0.53 0.54 0.54 0.54 0.54
0.82 0.80 0.74 0.71 0.75 0.76 0.78 0.83 0.87 0.85 0.90 0.89 0.89 0.84 0.85 0.95 0.99 1.02 1.02 0.92 0.81 0.70 0.68 0.61 0.52 0.42 0.37 0.30 0.44 0.41 0.40 0.42 0.45 0.47 0.51 0.50 0.50 0.51 0.53 0.54 0.55 0.56 0.58 0.59
0.78 0.78 0.61 0.67 0.69 0.74 0.78 0.86 0.85 0.84 0.90 0.90 0.81 0.79 0.84 0.95 1.01 1.06 0.94 0.80 0.74 0.67 0.62 0.49 0.41 0.35 0.34 0.31 0.39 0.42 0.44 0.46 0.49 0.50 0.50 0.49 0.49 0.51 0.51 0.52 0.51 0.52 0.53 0.53
0.86 0.78 0.74 0.73 0.74 0.74 0.79 0.85 0.83 0.84 0.87 0.89 0.87 0.84 0.83 0.85 0.91 0.94 0.94 0.77 0.66 0.65 0.57 0.47 0.43 0.39 0.34 0.37 0.42 0.42 0.46 0.48 0.48 0.47 0.45 0.45 0.47 0.46 0.46 0.48 0.46 0.42 0.42 0.42
0.90 0.87 0.84 0.79 0.79 0.79 0.83 0.84 0.81 0.81 0.83 0.87 0.84 0.83 0.78 0.76 0.86 0.82 0.74 0.78 0.65 0.59 0.57 0.50 0.49 0.43 0.37 0.39 0.45 0.44 0.45 0.46 0.47 0.47 0.47 0.46 0.46 0.45 0.42 0.41 0.41 0.41 0.42 0.43
0.88 0.87 0.83 0.82 0.83 0.87 0.87 0.95 0.95 0.90 0.84 0.87 0.87 0.86 0.83 0.81 0.79 0.85 0.87 0.77 0.67 0.65 0.61 0.53 0.48 0.46 0.40 0.39 0.42 0.43 0.43 0.45 0.46 0.47 0.47 0.47 0.45 0.42 0.44 0.45 0.42 0.42 0.45 0.47
1.01 0.96 0.93 0.90 0.86 0.86 0.90 0.98 1.03 1.04 1.01 0.97 0.97 0.93 0.90 0.92 0.76 0.74 0.80 0.80 0.76 0.70 0.62 0.55 0.52 0.48 0.45 0.42 0.43 0.44 0.44 0.45 0.45 0.46 0.46 0.44 0.43 0.44 0.46 0.47 0.46 0.46 0.48 0.51
0.90 0.91 0.92 0.95 0.98 0.98 0.99 1.01 1.01 1.08 1.09 1.01 1.04 1.02 0.93 0.95 0.90 0.83 0.80 0.82 0.80 0.75 0.70 0.68 0.65 0.59 0.48 0.42 0.44 0.47 0.47 0.48 0.49 0.49 0.49 0.47 0.46 0.47 0.48 0.49 0.48 0.49 0.50 0.52
0.81 0.83 0.89 0.90 0.95 1.03 1.09 1.04 1.03 1.05 1.11 1.08 1.04 1.09 0.99 0.91 0.93 0.91 0.87 0.82 0.80 0.79 0.78 0.77 0.74 0.69 0.63 0.54 0.47 0.46 0.47 0.48 0.49 0.48 0.47 0.48 0.48 0.48 0.49 0.49 0.50 0.53 0.55 0.57
Wind_Speed
16 16 14 14 14 14 13 14 12 14 14 15 14 15 14 14 15 13 13 13 12 14 16 17 19 23 25 31 33 37 34 31 31 29 29 29 29 30 29 27 27 25 23 21
13 14 14 13 13 15 12 12 12 11 13 15 15 15 17 17 17 16 17 16 16 15 15 17 18 22 25 29 32 36 37 34 33 30 29 31 30 30 30 28 26 25 23 22
10 10 12 12 13 11 11 12 13 13 17 16 19 19 18 17 18 17 19 18 15 15 15 16 19 21 23 25 30 37 38 36 34 35 32 33 33 32 31 30 28 26 24 22
10 9 10 14 11 11 11 12 14 15 18 19 19 19 19 18 19 19 18 17 18 17 16 16 16 16 19 21 25 30 37 39 41 40 36 37 36 34 32 30 29 27 25 24
10 10 11 11 12 12 13 15 15 14 16 15 16 17 19 19 19 19 21 20 19 19 19 19 19 20 22 19 23 26 29 33 34 41 41 39 37 35 33 30 29 27 26 25
9 9 11 13 12 13 12 15 14 14 15 15 14 16 19 18 17 16 16 16 15 13 12 12 14 15 15 18 22 25 26 33 36 31 36 37 35 33 31 30 29 28 26 25
10 10 12 12 11 10 11 14 14 15 17 17 19 21 18 18 18 17 17 14 13 13 12 11 12 11 11 10 12 18 24 27 31 31 23 33 32 31 31 30 28 28 26 24
9 9 12 12 10 11 12 13 14 17 19 20 18 16 15 15 16 18 18 17 15 14 12 11 9 8 7 7 5 2 12 16 23 24 25 27 25 23 24 26 25 28 27 22
12 12 11 10 11 13 13 12 15 17 19 17 16 15 13 12 10 12 14 13 12 12 12 10 9 8 5 4 0 4 6 10 13 14 21 22 22 20 20 21 22 19 22 19
10 13 11 11 10 9 9 12 12 10 9 5 2 7 9 9 10 9 9 9 8 8 8 7 6 6 2 2 4 7 7 10 12 13 12 14 14 16 14 13 14 14 13 12
9 8 7 9 10 10 9 9 7 6 2 2 4 6 10 10 9 8 7 6 4 4 4 4 5 7 5 4 6 9 9 11 13 13 13 11 13 14 13 12 12 13 12 10
14 13 9 10 10 10 8 8 4 3 3 3 6 7 8 8 8 7 6 6 5 3 3 2 4 7 7 7 7 9 8 9 11 10 10 11 12 12 10 10 10 10 9 8
11 10 9 8 8 7 4 3 3 4 3 4 5 6 7 7 7 7 6 6 6 4 4 4 5 7 9 8 9 9 9 9 9 9 9 10 11 11 10 9 9 8 7 6
11 9 6 7 7 6 4 5 4 4 4 4 4 4 5 7 7 8 8 7 7 6 6 7 7 8 8 9 8 9 8 8 9 9 9 9 9 9 8 8 7 6 5 4
14 10 9 9 7 7 7 4 4 5 4 4 5 5 5 6 7 8 9 9 9 8 7 7 7 7 8 9 8 8 8 8 8 7 7 6 6 5 5 4 4 4 3 2
15 11 12 12 10 9 8 7 6 6 5 5 6 6 6 6 7 8 9 9 9 9 8 7 6 7 7 8 8 8 8 8 7 7 6 5 5 4 4 4 4 4 3 2
14 13 16 14 13 12 11 9 8 7 7 7 6 6 7 7 7 7 8 9 9 9 9 8 7 7 7 7 7 8 8 7 7 7 6 6 7 6 6 5 5 5 4 5
13 15 16 16 15 13 13 11 9 9 9 9 8 7 6 7 8 8 8 8 9 9 8 9 9 8 8 9 8 7 8 8 8 7 7 7 6 5 4 4 4 4 4 5
15 14 16 16 16 16 14 13 12 10 10 10 10 8 7 7 7 9 9 8 7 8 9 9 10 10 10 10 9 8 9 9 9 8 7 7 6 5 4 3 2 3 5 6
20 18 17 17 18 18 17 16 15 13 12 11 10 8 8 8 8 9 10 9 9 8 9 9 9 10 10 11 10 9 9 9 8 7 7 7 6 5 3 2 3 4 6 8
23 22 20 20 19 21 21 19 17 17 15 14 13 12 10 9 10 11 10 9 9 9 9 9 9 9 10 11 10 9 9 10 9 8 8 8 6 4 3 4 5 7 9 11
24 23 22 20 21 22 23 22 21 20 19 18 15 14 12 11 11 11 12 11 10 10 10 10 10 10 10 11 10 10 11 10 10 10 9 8 7 6 6 7 9 10 11 13
24 24 24 23 24 23 25 25 24 23 22 22 19 18 16 14 14 13 12 13 12 12 11 11 11 11 12 11 11 11 12 12 11 11 10 10 9 9 9 9 11 12 13 14
21 22 24 25 25 24 25 26 26 26 25 24 23 22 20 17 16 16 14 14 14 14 13 13 13 13 13 13 13 14 13 13 13 13 12 12 11 11 11 12 13 14 15 15
16 18 18 21 25 26 27 27 27 27 27 26 25 24 23 21 19 19 18 16 16 15 15 15 14 15 15 15 15 15 15 15 15 15 15 14 14 14 14 15 16 16 17 17
16 18 19 20 21 24 26 26 28 29 28 27 26 25 25 24 22 21 20 19 18 17 16 16 16 16 17 18 18 18 18 18 18 18 18 18 18 18 18 18 18 18 18 17
16 17 19 21 21 22 23 25 27 29 30 30 28 27 26 26 25 24 23 23 22 21 20 19 18 18 19 19 20 21 21 21 21 21 21 20 20 20 20 20 19 19 18 17
Wind_Direction
236 237 246 253 262 267 261 259 253 264 253 259 258 257 260 258 263 262 259 262 265 270 261 257 253 248 245 239 241 231 226 226 230 230 229 227 226 225 225 227 228 230 232 234
237 243 250 257 269 266 258 260 261 262 265 264 263 266 266 263 257 258 260 266 266 275 266 269 264 258 255 247 240 230 225 229 226 233 233 228 225 225 225 226 227 229 231 233
238 250 256 260 254 262 261 268 265 265 266 266 269 265 261 258 255 263 261 259 265 269 274 274 272 265 260 255 241 237 234 224 235 231 233 232 227 225 224 225 226 229 232 232
240 259 260 255 258 256 256 268 278 275 274 269 273 267 263 263 260 260 257 258 261 266 268 277 282 282 268 255 245 240 238 235 235 226 238 232 226 224 224 225 228 228 229 232
240 245 260 255 258 258 263 271 279 279 278 281 275 268 265 262 261 259 252 257 254 261 270 276 278 280 269 262 257 244 239 230 231 233 232 224 222 223 224 224 226 227 230 233
245 242 245 256 260 258 268 271 274 279 277 277 277 274 264 255 256 255 247 251 252 262 273 286 284 284 281 271 261 245 237 231 220 233 225 215 217 218 220 221 225 227 229 233
240 251 266 259 254 259 265 268 271 282 284 278 279 272 268 254 251 245 239 241 245 247 270 286 285 286 298 296 289 256 233 227 222 227 219 202 215 218 217 218 224 225 226 232
243 254 263 249 256 261 269 283 279 286 289 287 279 271 258 249 244 239 234 236 243 248 263 279 281 271 289 309 297 352 211 221 216 217 213 209 218 216 201 215 223 227 224 235
238 253 258 255 265 274 274 275 287 294 294 287 275 256 238 229 234 228 219 220 227 245 258 267 268 251 282 302 306 140 152 131 148 159 186 205 202 210 217 222 218 220 224 230
245 254 257 259 261 272 280 297 293 304 316 310 307 189 187 193 190 190 194 202 221 237 247 251 250 213 213 141 146 158 149 152 159 164 166 165 179 194 184 182 195 203 213 218
247 251 258 263 255 259 272 296 298 303 354 33 143 149 178 163 165 167 176 187 204 211 223 230 206 198 192 164 138 130 127 128 132 144 147 156 170 176 180 185 189 190 191 195
246 238 245 249 246 261 273 292 284 197 141 109 126 144 150 159 176 188 187 195 192 192 168 176 187 193 190 177 154 150 136 134 137 139 138 145 153 156 160 172 179 180 186 198
238 228 238 233 241 252 258 238 171 163 169 161 161 161 166 173 181 178 178 172 170 159 150 151 150 153 156 153 150 141 142 144 144 137 137 138 144 147 150 150 153 163 173 179
206 196 225 231 224 206 168 151 149 170 158 159 168 173 181 184 187 185 183 177 165 154 145 139 138 139 143 151 151 145 143 142 141 141 135 135 134 136 141 146 156 163 168 178
213 222 213 198 188 184 173 175 162 147 159 161 163 166 173 185 190 189 185 181 173 165 155 149 144 148 151 155 158 158 158 155 155 157 156 156 154 154 157 160 167 172 178 188
215 214 198 193 197 188 183 184 179 169 162 156 164 169 172 173 177 181 183 183 183 182 176 169 167 175 167 168 165 164 162 164 170 174 174 177 184 188 183 175 177 186 200 234
222 211 206 201 201 202 204 200 191 186 178 170 164 163 165 169 169 179 185 188 188 187 188 186 187 188 188 189 188 191 191 188 192 199 202 193 186 195 203 203 212 223 233 258
215 209 207 209 209 206 203 201 200 195 194 188 180 172 171 178 185 189 189 188 193 199 208 213 212 210 206 202 204 204 201 199 191 179 178 188 195 201 202 212 223 227 253 268
221 216 218 217 215 213 211 208 206 201 195 194 191 197 200 199 199 193 193 197 204 214 225 222 217 217 218 215 210 208 197 193 195 200 203 202 193 183 179 186 219 265 278 285
227 229 224 224 226 220 216 214 210 209 205 204 204 203 205 208 207 203 204 211 220 229 223 222 220 218 213 208 204 206 200 198 195 193 188 177 175 180 191 226 277 294 298 297
229 228 230 230 231 224 219 216 216 216 216 214 212 214 214 213 209 206 212 220 225 223 219 214 207 205 205 200 202 204 201 195 197 195 187 184 189 203 233 277 297 301 300 301
223 225 229 235 232 228 220 220 222 221 220 220 222 222 220 221 218 218 224 223 224 220 216 210 209 208 206 204 211 208 201 201 205 204 204 209 224 245 269 286 297 301 304 307
224 230 236 240 230 230 224 223 224 224 223 224 226 226 225 227 225 223 228 226 223 217 218 218 220 218 212 214 217 209 209 214 217 221 226 235 246 260 275 289 294 300 305 309
232 238 240 231 229 228 226 227 227 227 226 227 229 227 225 229 231 230 229 223 222 221 224 226 225 222 221 224 224 222 224 227 231 233 239 246 257 269 279 288 294 299 303 306
236 236 236 231 231 231 231 230 230 227 226 228 229 229 228 231 232 229 227 227 224 226 229 228 228 229 233 232 231 231 233 234 237 243 248 254 261 268 277 286 292 296 299 300
244 240 240 239 238 238 233 232 231 228 226 228 229 229 229 231 231 229 229 228 228 230 233 234 237 240 240 238 237 238 241 242 245 250 255 259 264 269 276 282 287 291 296 298
253 249 246 244 242 241 237 235 232 229 227 227 229 231 231 231 230 230 231 232 232 233 235 238 243 247 247 245 244 245 246 249 252 255 257 261 265 271 275 278 281 285 289 292